CTN6B LDDU-LDZA

Flight info

Callsign CTN6B
Flight time 0h 47m
Altitude 34000
Route AMUGO DCT SIRMI DCT RUDIK
Aircraft A319/M-SDE3FGHIRWY/LB1

Departure

Time 2026-04-28 08:03
Airport Dubrovnik Ruđer Bošković Airport (LDDU)

Arrival

Time 2026-04-28 08:51
Airport Zagreb Franjo Tuđman International Airport (LDZA)
Time Latitude Longitude Altitude Speed Heading
2026-04-28 07:39 42.56086 18.26304 514 ft 0 kts 204°
2026-04-28 07:53 42.56091 18.26307 514 ft 4 kts 205°
2026-04-28 07:54 42.56115 18.26324 514 ft 4 kts 217°
2026-04-28 07:54 42.56131 18.26349 514 ft 4 kts 258°
2026-04-28 07:54 42.56131 18.26368 513 ft 0 kts 299°
2026-04-28 07:56 42.56131 18.26367 513 ft 0 kts 299°
2026-04-28 07:57 42.56135 18.26359 513 ft 2 kts 299°
2026-04-28 07:57 42.56144 18.26338 513 ft 3 kts 299°
2026-04-28 07:57 42.56157 18.26303 513 ft 5 kts 297°
2026-04-28 07:57 42.56173 18.26259 513 ft 5 kts 298°
2026-04-28 07:58 42.56191 18.26215 514 ft 6 kts 299°
2026-04-28 07:58 42.56220 18.26141 516 ft 11 kts 297°
2026-04-28 07:58 42.56263 18.26030 517 ft 14 kts 298°
2026-04-28 07:58 42.56310 18.25912 518 ft 14 kts 298°
2026-04-28 07:59 42.56353 18.25803 521 ft 12 kts 298°
2026-04-28 07:59 42.56392 18.25704 521 ft 12 kts 298°
2026-04-28 07:59 42.56435 18.25598 520 ft 13 kts 298°
2026-04-28 07:59 42.56464 18.25525 521 ft 13 kts 298°
2026-04-28 08:00 42.56508 18.25418 521 ft 13 kts 298°
2026-04-28 08:00 42.56553 18.25299 519 ft 15 kts 304°
2026-04-28 08:00 42.56602 18.25179 521 ft 14 kts 298°
2026-04-28 08:00 42.56646 18.25065 521 ft 14 kts 297°
2026-04-28 08:01 42.56692 18.24948 521 ft 14 kts 299°
2026-04-28 08:01 42.56736 18.24838 524 ft 12 kts 298°
2026-04-28 08:01 42.56775 18.24740 526 ft 12 kts 300°
2026-04-28 08:01 42.56834 18.24675 527 ft 11 kts 346°
2026-04-28 08:02 42.56896 18.24695 529 ft 8 kts 32°
2026-04-28 08:02 42.56933 18.24811 529 ft 14 kts 99°
2026-04-28 08:02 42.56904 18.24894 528 ft 15 kts 118°
2026-04-28 08:02 42.56850 18.25032 525 ft 23 kts 118°
2026-04-28 08:03 42.56647 18.25540 524 ft 97 kts 118°
2026-04-28 08:03 42.56224 18.26600 514 ft 156 kts 119°
2026-04-28 08:03 42.55698 18.27916 1124 ft 156 kts 118°
2026-04-28 08:03 42.55188 18.29221 1789 ft 157 kts 119°
2026-04-28 08:04 42.54672 18.30528 2359 ft 166 kts 120°
2026-04-28 08:04 42.54087 18.31985 2752 ft 187 kts 119°
2026-04-28 08:04 42.53283 18.33460 3165 ft 208 kts 146°
2026-04-28 08:04 42.51846 18.33901 3618 ft 223 kts 191°
2026-04-28 08:05 42.50535 18.32857 4482 ft 221 kts 227°
2026-04-28 08:05 42.49408 18.31358 5322 ft 228 kts 212°
2026-04-28 08:05 42.47917 18.30750 6164 ft 230 kts 187°
2026-04-28 08:05 42.46335 18.30415 7021 ft 231 kts 193°
2026-04-28 08:06 42.44768 18.29894 7852 ft 233 kts 195°
2026-04-28 08:06 42.43192 18.29318 8700 ft 235 kts 195°
2026-04-28 08:06 42.41610 18.28730 9569 ft 237 kts 198°
2026-04-28 08:06 42.40206 18.27564 10341 ft 241 kts 227°
2026-04-28 08:07 42.39389 18.25540 11011 ft 252 kts 256°
2026-04-28 08:07 42.39447 18.23126 11324 ft 275 kts 285°
2026-04-28 08:07 42.40051 18.20545 11868 ft 290 kts 288°
2026-04-28 08:07 42.40683 18.17934 12661 ft 294 kts 288°
2026-04-28 08:08 42.41319 18.15290 13502 ft 297 kts 288°
2026-04-28 08:08 42.41955 18.12610 14306 ft 300 kts 288°
2026-04-28 08:08 42.42605 18.09850 14676 ft 318 kts 288°
2026-04-28 08:08 42.43295 18.06898 14855 ft 340 kts 288°
2026-04-28 08:09 42.44016 18.03793 15348 ft 349 kts 288°
2026-04-28 08:09 42.44748 18.00635 16006 ft 354 kts 288°
2026-04-28 08:09 42.45484 17.97443 16693 ft 357 kts 288°
2026-04-28 08:09 42.46217 17.94259 17373 ft 360 kts 288°
2026-04-28 08:10 42.46974 17.90966 18066 ft 364 kts 288°
2026-04-28 08:10 42.47731 17.87678 18696 ft 367 kts 288°
2026-04-28 08:10 42.48491 17.84369 19293 ft 370 kts 288°
2026-04-28 08:10 42.49256 17.81030 19897 ft 372 kts 288°
2026-04-28 08:11 42.50026 17.77668 20501 ft 375 kts 288°
2026-04-28 08:11 42.50791 17.74323 21098 ft 378 kts 288°
2026-04-28 08:11 42.51578 17.70868 21710 ft 380 kts 288°
2026-04-28 08:11 42.52359 17.67429 22305 ft 383 kts 288°
2026-04-28 08:12 42.53183 17.63986 22866 ft 385 kts 292°
2026-04-28 08:12 42.54390 17.60790 23406 ft 388 kts 303°
2026-04-28 08:12 42.56072 17.57932 23897 ft 390 kts 314°
2026-04-28 08:12 42.58161 17.55563 24335 ft 394 kts 325°
2026-04-28 08:13 42.60529 17.53669 24776 ft 397 kts 329°
2026-04-28 08:13 42.62934 17.51813 25211 ft 399 kts 329°
2026-04-28 08:13 42.65387 17.49911 25636 ft 402 kts 329°
2026-04-28 08:13 42.67818 17.48021 26066 ft 404 kts 329°
2026-04-28 08:14 42.70260 17.46121 26511 ft 406 kts 329°
2026-04-28 08:14 42.72718 17.44205 26936 ft 408 kts 329°
2026-04-28 08:14 42.75186 17.42279 27354 ft 410 kts 329°
2026-04-28 08:14 42.77669 17.40339 27761 ft 413 kts 329°
2026-04-28 08:15 42.80168 17.38383 28156 ft 416 kts 329°
2026-04-28 08:15 42.82653 17.36441 28542 ft 418 kts 329°
2026-04-28 08:15 42.85184 17.34466 28929 ft 421 kts 329°
2026-04-28 08:15 42.87733 17.32475 29310 ft 423 kts 329°
2026-04-28 08:16 42.90296 17.30469 29686 ft 426 kts 329°
2026-04-28 08:16 42.92867 17.28453 30073 ft 427 kts 329°
2026-04-28 08:16 42.95449 17.26429 30396 ft 429 kts 329°
2026-04-28 08:16 42.98044 17.24391 30713 ft 431 kts 329°
2026-04-28 08:17 43.00647 17.22345 31021 ft 433 kts 329°
2026-04-28 08:17 43.03266 17.20286 31323 ft 435 kts 329°
2026-04-28 08:17 43.05883 17.18222 31692 ft 434 kts 329°
2026-04-28 08:17 43.08493 17.16159 32130 ft 433 kts 329°
2026-04-28 08:18 43.11096 17.14100 32554 ft 431 kts 329°
2026-04-28 08:18 43.13688 17.12048 32993 ft 430 kts 329°
2026-04-28 08:18 43.16272 17.10002 33459 ft 428 kts 329°
2026-04-28 08:18 43.18846 17.07966 33908 ft 426 kts 329°
2026-04-28 08:19 43.21418 17.05935 34075 ft 425 kts 329°
2026-04-28 08:19 43.23961 17.03925 34095 ft 420 kts 328°
2026-04-28 08:19 43.28998 16.99921 34095 ft 418 kts 328°
2026-04-28 08:20 43.34019 16.95910 34098 ft 417 kts 328°
2026-04-28 08:20 43.39039 16.91913 34097 ft 417 kts 328°
2026-04-28 08:21 43.44054 16.87912 34092 ft 417 kts 328°
2026-04-28 08:21 43.49061 16.83899 34092 ft 416 kts 328°
2026-04-28 08:22 43.54068 16.79888 34091 ft 416 kts 328°
2026-04-28 08:22 43.59076 16.75878 34090 ft 416 kts 328°
2026-04-28 08:23 43.64071 16.71850 34086 ft 416 kts 328°
2026-04-28 08:23 43.69095 16.67784 34072 ft 416 kts 328°
2026-04-28 08:24 43.74089 16.63753 34070 ft 416 kts 328°
2026-04-28 08:24 43.79081 16.59709 34082 ft 416 kts 328°
2026-04-28 08:25 43.84070 16.55656 34087 ft 416 kts 328°
2026-04-28 08:25 43.86569 16.53624 33919 ft 417 kts 328°
2026-04-28 08:26 43.91563 16.49558 33368 ft 416 kts 328°
2026-04-28 08:26 43.94062 16.47522 33099 ft 417 kts 328°
2026-04-28 08:26 43.96564 16.45478 32835 ft 418 kts 328°
2026-04-28 08:26 43.99074 16.43427 32549 ft 419 kts 328°
2026-04-28 08:27 44.01587 16.41372 32306 ft 419 kts 328°
2026-04-28 08:27 44.04099 16.39318 32047 ft 419 kts 328°
2026-04-28 08:27 44.06617 16.37255 31795 ft 420 kts 328°
2026-04-28 08:27 44.09130 16.35192 31530 ft 419 kts 328°
2026-04-28 08:28 44.11647 16.33152 31281 ft 419 kts 330°
2026-04-28 08:28 44.14308 16.31540 30824 ft 417 kts 339°
2026-04-28 08:28 44.17125 16.30601 30220 ft 417 kts 349°
2026-04-28 08:28 44.20019 16.30357 29558 ft 417 kts 358°
2026-04-28 08:29 44.22856 16.30394 28989 ft 411 kts 357°
2026-04-28 08:29 44.25744 16.30411 28394 ft 406 kts 357°
2026-04-28 08:29 44.28556 16.30413 27818 ft 402 kts 357°
2026-04-28 08:29 44.31337 16.30410 27254 ft 398 kts 357°
2026-04-28 08:30 44.34053 16.30405 26696 ft 394 kts 356°
2026-04-28 08:30 44.36780 16.30403 26162 ft 390 kts 357°
2026-04-28 08:30 44.39490 16.30405 25621 ft 387 kts 357°
2026-04-28 08:30 44.42177 16.30408 25098 ft 385 kts 356°
2026-04-28 08:31 44.44854 16.30412 24586 ft 384 kts 356°
2026-04-28 08:31 44.47517 16.30417 24082 ft 382 kts 356°
2026-04-28 08:31 44.50168 16.30425 23572 ft 381 kts 356°
2026-04-28 08:31 44.52806 16.30431 23059 ft 375 kts 356°
2026-04-28 08:32 44.55374 16.30436 22617 ft 365 kts 356°
2026-04-28 08:32 44.57901 16.30438 22154 ft 362 kts 356°
2026-04-28 08:32 44.60409 16.30443 21726 ft 359 kts 356°
2026-04-28 08:32 44.62894 16.30448 21259 ft 356 kts 356°
2026-04-28 08:33 44.65368 16.30451 20799 ft 354 kts 356°
2026-04-28 08:33 44.67823 16.30455 20346 ft 352 kts 356°
2026-04-28 08:33 44.70263 16.30459 19873 ft 350 kts 356°
2026-04-28 08:33 44.72692 16.30463 19404 ft 349 kts 357°
2026-04-28 08:34 44.75115 16.30469 18930 ft 349 kts 357°
2026-04-28 08:34 44.77542 16.30476 18447 ft 348 kts 357°
2026-04-28 08:34 44.79960 16.30481 17931 ft 347 kts 357°
2026-04-28 08:34 44.82371 16.30486 17439 ft 345 kts 357°
2026-04-28 08:35 44.84760 16.30493 16978 ft 342 kts 357°
2026-04-28 08:35 44.87168 16.30498 16500 ft 341 kts 357°
2026-04-28 08:35 44.89503 16.30501 16050 ft 339 kts 357°
2026-04-28 08:35 44.91860 16.30500 15595 ft 338 kts 357°
2026-04-28 08:36 44.94206 16.30502 15139 ft 337 kts 358°
2026-04-28 08:36 44.96557 16.30505 14685 ft 337 kts 358°
2026-04-28 08:36 44.98896 16.30408 14230 ft 335 kts 351°
2026-04-28 08:36 45.01156 16.29724 13784 ft 332 kts 340°
2026-04-28 08:37 45.03316 16.28603 13319 ft 329 kts 338°
2026-04-28 08:37 45.05455 16.27492 12870 ft 326 kts 338°
2026-04-28 08:37 45.07579 16.26400 12426 ft 324 kts 339°
2026-04-28 08:37 45.09690 16.25321 11976 ft 322 kts 339°
2026-04-28 08:38 45.11794 16.24245 11530 ft 320 kts 339°
2026-04-28 08:38 45.13881 16.23172 11077 ft 319 kts 339°
2026-04-28 08:38 45.15967 16.22097 10515 ft 321 kts 339°
2026-04-28 08:38 45.18045 16.21023 10304 ft 311 kts 339°
2026-04-28 08:39 45.20040 16.19985 10181 ft 299 kts 339°
2026-04-28 08:39 45.21925 16.18854 9961 ft 291 kts 329°
2026-04-28 08:39 45.23537 16.17191 9814 ft 286 kts 316°
2026-04-28 08:39 45.24981 16.15250 9492 ft 285 kts 315°
2026-04-28 08:40 45.26426 16.13327 9102 ft 284 kts 315°
2026-04-28 08:40 45.27870 16.11416 8698 ft 283 kts 315°
2026-04-28 08:40 45.29310 16.09509 8298 ft 282 kts 316°
2026-04-28 08:40 45.30742 16.07613 7901 ft 281 kts 316°
2026-04-28 08:41 45.31707 16.06333 7751 ft 280 kts 315°
2026-04-28 08:41 45.33127 16.04440 7510 ft 280 kts 315°
2026-04-28 08:41 45.34547 16.02544 7272 ft 280 kts 315°
2026-04-28 08:41 45.35964 16.00652 7029 ft 279 kts 315°
2026-04-28 08:42 45.37378 15.98766 6782 ft 279 kts 315°
2026-04-28 08:42 45.38792 15.96881 6532 ft 278 kts 316°
2026-04-28 08:42 45.40200 15.95002 6285 ft 278 kts 315°
2026-04-28 08:42 45.41609 15.93118 6033 ft 278 kts 315°
2026-04-28 08:43 45.43022 15.91228 5786 ft 278 kts 316°
2026-04-28 08:43 45.44425 15.89347 5543 ft 277 kts 316°
2026-04-28 08:43 45.45825 15.87469 5310 ft 276 kts 316°
2026-04-28 08:43 45.47224 15.85594 5059 ft 276 kts 317°
2026-04-28 08:44 45.48620 15.83720 4810 ft 276 kts 317°
2026-04-28 08:44 45.50015 15.81848 4540 ft 275 kts 317°
2026-04-28 08:44 45.51401 15.79987 4331 ft 270 kts 317°
2026-04-28 08:44 45.52894 15.78532 4220 ft 253 kts 342°
2026-04-28 08:45 45.54572 15.78325 4111 ft 237 kts 14°
2026-04-28 08:45 45.56007 15.79270 4001 ft 222 kts 43°
2026-04-28 08:45 45.57061 15.80794 3900 ft 211 kts 49°
2026-04-28 08:45 45.58044 15.82288 3800 ft 202 kts 49°
2026-04-28 08:46 45.58985 15.83710 3699 ft 193 kts 49°
2026-04-28 08:46 45.59903 15.85095 3619 ft 192 kts 49°
2026-04-28 08:46 45.60821 15.86480 3462 ft 192 kts 49°
2026-04-28 08:46 45.61735 15.87859 3319 ft 191 kts 49°
2026-04-28 08:47 45.62644 15.89232 3216 ft 190 kts 49°
2026-04-28 08:47 45.63550 15.90600 3085 ft 190 kts 49°
2026-04-28 08:47 45.64459 15.91973 2865 ft 190 kts 50°
2026-04-28 08:47 45.65365 15.93342 2617 ft 189 kts 49°
2026-04-28 08:48 45.66272 15.94716 2363 ft 190 kts 49°
2026-04-28 08:48 45.67193 15.96109 2110 ft 197 kts 48°
2026-04-28 08:48 45.68129 15.97525 1861 ft 191 kts 49°
2026-04-28 08:48 45.69014 15.98863 1596 ft 179 kts 49°
2026-04-28 08:49 45.69832 16.00103 1364 ft 161 kts 48°
2026-04-28 08:49 45.70559 16.01203 1148 ft 144 kts 48°
2026-04-28 08:49 45.71219 16.02206 969 ft 135 kts 47°
2026-04-28 08:49 45.71846 16.03158 787 ft 130 kts 47°
2026-04-28 08:50 45.72461 16.04092 618 ft 128 kts 48°
2026-04-28 08:50 45.73072 16.05018 447 ft 128 kts 47°
2026-04-28 08:50 45.73677 16.05929 363 ft 122 kts 46°
2026-04-28 08:50 45.74158 16.06666 360 ft 77 kts 47°
2026-04-28 08:51 45.74404 16.07045 361 ft 27 kts 46°
2026-04-28 08:51 45.74443 16.07103 358 ft 2 kts 46°
2026-04-28 08:51 45.74474 16.07149 358 ft 18 kts 46°
2026-04-28 08:51 45.74569 16.07295 358 ft 21 kts 47°
2026-04-28 08:52 45.74663 16.07440 358 ft 14 kts 47°
2026-04-28 08:52 45.74658 16.07528 360 ft 8 kts 128°
2026-04-28 08:52 45.74618 16.07592 358 ft 8 kts 137°
2026-04-28 08:52 45.74576 16.07650 359 ft 9 kts 136°
2026-04-28 08:53 45.74512 16.07735 359 ft 15 kts 137°
2026-04-28 08:53 45.74432 16.07842 363 ft 16 kts 137°
2026-04-28 08:53 45.74347 16.07930 363 ft 15 kts 146°
2026-04-28 08:53 45.74295 16.08000 359 ft 4 kts 136°
2026-04-28 08:54 45.74291 16.08006 359 ft 0 kts 136°